| time (UTC) | temp F | wind direction | speed MPH | gust MPH | rain 1hr in | rain 24hr in | rain mn in | humidity % | barometer mb |
| 20260504000334 | 73 | 263 | 8.0 | 0.0 | 0.00 | 0.00 | 0.00 | 26 | 1009.9 |
| 20260503235338 | 74 | 260 | 7.0 | 0.0 | 0.00 | 0.00 | 0.00 | 23 | 1010.1 |
| 20260503234327 | 73 | 241 | 7.0 | 0.0 | 0.00 | 0.00 | 0.00 | 26 | 1009.6 |
| 20260503233331 | 74 | 242 | 8.0 | 0.0 | 0.00 | 0.00 | 0.00 | 24 | 1010.3 |
| 20260503232355 | 75 | 233 | 5.0 | 0.0 | 0.00 | 0.00 | 0.00 | 23 | 1010.3 |
| 20260503231337 | 75 | 205 | 6.0 | 0.0 | 0.00 | 0.00 | 0.00 | 23 | 1010.4 |
| 20260503230348 | 75 | 218 | 3.0 | 0.0 | 0.00 | 0.00 | 0.00 | 23 | 1010.6 |
| 20260503225330 | 74 | 71 | 5.0 | 0.0 | 0.00 | 0.00 | 0.00 | 24 | 1010.5 |
| 20260503224354 | 74 | 266 | 5.0 | 0.0 | 0.00 | 0.00 | 0.00 | 26 | 1010.5 |
| 20260503223337 | 73 | 291 | 5.0 | 0.0 | 0.00 | 0.00 | 0.00 | 28 | 1011.0 |
| 20260503222326 | 74 | 304 | 6.0 | 0.0 | 0.00 | 0.00 | 0.00 | 25 | 1010.9 |
| 20260503221332 | 75 | 318 | 6.0 | 0.0 | 0.00 | 0.00 | 0.00 | 25 | 1011.0 |
| 20260503220337 | 74 | 286 | 4.0 | 0.0 | 0.00 | 0.00 | 0.00 | 24 | 1011.3 |
| 20260503215340 | 75 | 283 | 12.0 | 0.0 | 0.00 | 0.00 | 0.00 | 27 | 1011.7 |
| 20260503214344 | 74 | 204 | 11.0 | 0.0 | 0.00 | 0.00 | 0.00 | 25 | 1011.2 |
| 20260503213331 | 74 | 253 | 7.0 | 0.0 | 0.00 | 0.00 | 0.00 | 27 | 1012.2 |
| 20260503212356 | 74 | 264 | 7.0 | 0.0 | 0.00 | 0.00 | 0.00 | 27 | 1012.5 |
| 20260503211323 | 73 | 298 | 8.0 | 0.0 | 0.00 | 0.00 | 0.00 | 28 | 1012.7 |
| 20260503210332 | 73 | 242 | 8.0 | 0.0 | 0.00 | 0.00 | 0.00 | 28 | 1012.9 |
| 20260503205341 | 73 | 251 | 7.0 | 0.0 | 0.00 | 0.00 | 0.00 | 28 | 1012.6 |
| 20260503204405 | 72 | 346 | 7.0 | 0.0 | 0.00 | 0.00 | 0.00 | 28 | 1012.9 |
| 20260503203328 | 71 | 281 | 8.0 | 0.0 | 0.00 | 0.00 | 0.00 | 29 | 1013.2 |
| 20260503202333 | 72 | 257 | 9.0 | 0.0 | 0.00 | 0.00 | 0.00 | 28 | 1013.2 |
| 20260503201336 | 72 | 265 | 5.0 | 0.0 | 0.00 | 0.00 | 0.00 | 31 | 1013.4 |
| 20260503200327 | 71 | 176 | 7.0 | 0.0 | 0.00 | 0.00 | 0.00 | 30 | 1013.5 |
| 20260503195330 | 72 | 247 | 7.0 | 0.0 | 0.00 | 0.00 | 0.00 | 32 | 1014.0 |
| 20260503194334 | 71 | 332 | 2.0 | 0.0 | 0.00 | 0.00 | 0.00 | 30 | 1013.6 |
| 20260503193359 | 70 | 228 | 4.0 | 0.0 | 0.00 | 0.00 | 0.00 | 30 | 1013.9 |
| 20260503192327 | 71 | 16 | 4.0 | 0.0 | 0.00 | 0.00 | 0.00 | 30 | 1014.0 |
| 20260503191354 | 70 | 147 | 3.0 | 0.0 | 0.00 | 0.00 | 0.00 | 31 | 1014.2 |
| 20260503190337 | 69 | 124 | 8.0 | 0.0 | 0.00 | 0.00 | 0.00 | 31 | 1013.9 |
| 20260503185341 | 69 | 273 | 3.0 | 0.0 | 0.00 | 0.00 | 0.00 | 32 | 1014.7 |
| 20260503184329 | 68 | 357 | 3.0 | 0.0 | 0.00 | 0.00 | 0.00 | 32 | 1015.2 |
| 20260503183333 | 68 | 319 | 4.0 | 0.0 | 0.00 | 0.00 | 0.00 | 33 | 1015.5 |
| 20260503182337 | 68 | 2 | 3.0 | 0.0 | 0.00 | 0.00 | 0.00 | 33 | 1015.5 |
| 20260503181342 | 67 | 348 | 2.0 | 0.0 | 0.00 | 0.00 | 0.00 | 34 | 1015.7 |
| 20260503180330 | 67 | 44 | 2.0 | 0.0 | 0.00 | 0.00 | 0.00 | 34 | 1016.7 |
| 20260503175354 | 66 | 58 | 2.0 | 0.0 | 0.00 | 0.00 | 0.00 | 35 | 1016.0 |
| 20260503174358 | 65 | 233 | 2.0 | 0.0 | 0.00 | 0.00 | 0.00 | 37 | 1016.2 |
| 20260503173341 | 65 | 273 | 3.0 | 0.0 | 0.00 | 0.00 | 0.00 | 38 | 1016.3 |
| 20260503172345 | 65 | 57 | 1.0 | 0.0 | 0.00 | 0.00 | 0.00 | 39 | 1015.9 |
| 20260503171332 | 63 | 146 | 2.0 | 0.0 | 0.00 | 0.00 | 0.00 | 42 | 1016.1 |
| 20260503170337 | 61 | 26 | 3.0 | 0.0 | 0.00 | 0.00 | 0.00 | 42 | 1016.5 |
| 20260503150341 | 50 | 92 | 5.0 | 0.0 | 0.00 | 0.00 | 0.00 | 64 | 1017.3 |
| 20260503131339 | 38 | 109 | 3.0 | 0.0 | 0.00 | 0.00 | 0.00 | 81 | 1017.7 |
| 20260503130326 | 37 | 92 | 1.0 | 0.0 | 0.00 | 0.00 | 0.00 | 80 | 1017.7 |
| 20260503110340 | 37 | 181 | 2.0 | 0.0 | 0.00 | 0.00 | 0.00 | 77 | 1017.3 |
| 20260503090327 | 45 | 92 | 3.0 | 0.0 | 0.00 | 0.00 | 0.00 | 67 | 1016.8 |
| 20260503081341 | 47 | 63 | 5.0 | 0.0 | 0.00 | 0.00 | 0.00 | 64 | 1016.9 |
| 20260503080344 | 48 | 80 | 3.0 | 0.0 | 0.00 | 0.00 | 0.00 | 60 | 1016.5 |
| 20260503072330 | 53 | 220 | 4.0 | 0.0 | 0.00 | 0.00 | 0.00 | 55 | 1016.9 |
| 20260503071338 | 54 | 227 | 6.0 | 0.0 | 0.00 | 0.00 | 0.00 | 55 | 1016.9 |
| 20260503070341 | 53 | 211 | 4.0 | 0.0 | 0.00 | 0.00 | 0.00 | 57 | 1017.1 |
| 20260503060330 | 49 | 280 | 3.0 | 0.0 | 0.00 | 0.00 | 0.00 | 61 | 1016.7 |
| 20260503054343 | 49 | 186 | 4.0 | 0.0 | 0.00 | 0.00 | 0.00 | 59 | 1016.3 |
| 20260503053327 | 50 | 210 | 5.0 | 0.0 | 0.00 | 0.00 | 0.00 | 57 | 1016.3 |
| 20260503052331 | 51 | 279 | 6.0 | 0.0 | 0.00 | 0.00 | 0.00 | 56 | 1016.8 |
| 20260503051335 | 53 | 291 | 3.0 | 0.0 | 0.00 | 0.00 | 0.00 | 54 | 1016.4 |
| 20260503050326 | 54 | 186 | 5.0 | 0.0 | 0.00 | 0.00 | 0.00 | 52 | 1016.4 |
| 20260503045331 | 57 | 186 | 2.0 | 0.0 | 0.00 | 0.00 | 0.00 | 47 | 1016.2 |
| 20260503044336 | 59 | 120 | 3.0 | 0.0 | 0.00 | 0.00 | 0.00 | 45 | 1016.8 |
| 20260503043340 | 60 | 99 | 4.0 | 0.0 | 0.00 | 0.00 | 0.00 | 43 | 1016.7 |
| 20260503042329 | 59 | 111 | 5.0 | 0.0 | 0.00 | 0.00 | 0.00 | 45 | 1016.8 |
| 20260503041340 | 59 | 163 | 5.0 | 0.0 | 0.00 | 0.00 | 0.00 | 45 | 1016.7 |
| 20260503040344 | 57 | 152 | 5.0 | 0.0 | 0.00 | 0.00 | 0.00 | 46 | 1017.4 |
| 20260503035349 | 58 | 160 | 4.0 | 0.0 | 0.00 | 0.00 | 0.00 | 44 | 1016.1 |
| 20260503034355 | 61 | 84 | 1.0 | 0.0 | 0.00 | 0.00 | 0.00 | 41 | 1016.5 |
| 20260503033338 | 61 | 13 | 1.0 | 0.0 | 0.00 | 0.00 | 0.00 | 41 | 1016.3 |
| 20260503032342 | 60 | 316 | 3.0 | 0.0 | 0.00 | 0.00 | 0.00 | 41 | 1015.5 |
| 20260503031406 | 61 | 79 | 0.0 | 0.0 | 0.00 | 0.00 | 0.00 | 39 | 1015.3 |
| 20260503030349 | 61 | 57 | 2.0 | 0.0 | 0.00 | 0.00 | 0.00 | 39 | 1015.3 |
| 20260503025336 | 62 | 30 | 4.0 | 0.0 | 0.00 | 0.00 | 0.00 | 39 | 1015.1 |
| 20260503024400 | 61 | 1 | 3.0 | 0.0 | 0.00 | 0.00 | 0.00 | 41 | 1015.8 |
| 20260503023343 | 61 | 318 | 3.0 | 0.0 | 0.00 | 0.00 | 0.00 | 42 | 1015.8 |
| 20260503022327 | 63 | 257 | 3.0 | 0.0 | 0.00 | 0.00 | 0.00 | 40 | 1015.5 |
| 20260503021356 | 64 | 36 | 4.0 | 0.0 | 0.00 | 0.00 | 0.00 | 38 | 1015.0 |
| 20260503020339 | 65 | 51 | 5.0 | 0.0 | 0.00 | 0.00 | 0.00 | 38 | 1016.1 |
| 20260503015326 | 65 | 55 | 6.0 | 0.0 | 0.00 | 0.00 | 0.00 | 37 | 1015.2 |
| 20260503014331 | 66 | 51 | 5.0 | 0.0 | 0.00 | 0.00 | 0.00 | 36 | 1015.1 |
| 20260503013340 | 68 | 61 | 8.0 | 0.0 | 0.00 | 0.00 | 0.00 | 32 | 1014.7 |
| 20260503012344 | 68 | 36 | 11.0 | 0.0 | 0.00 | 0.00 | 0.00 | 29 | 1014.9 |
| 20260503011328 | 69 | 23 | 11.0 | 0.0 | 0.00 | 0.00 | 0.00 | 27 | 1014.6 |
| 20260503010331 | 70 | 17 | 12.0 | 0.0 | 0.00 | 0.00 | 0.00 | 28 | 1014.5 |
| 20260503005342 | 70 | 36 | 13.0 | 0.0 | 0.00 | 0.00 | 0.00 | 27 | 1015.1 |
| 20260503004326 | 70 | 4 | 13.0 | 0.0 | 0.00 | 0.00 | 0.00 | 28 | 1015.0 |
| 20260503003330 | 71 | 8 | 12.0 | 0.0 | 0.00 | 0.00 | 0.00 | 27 | 1015.0 |
| 20260503002338 | 71 | 19 | 13.0 | 0.0 | 0.00 | 0.00 | 0.00 | 27 | 1015.0 |
| 20260503001341 | 71 | 336 | 13.0 | 0.0 | 0.00 | 0.00 | 0.00 | 28 | 1015.1 |